When you browse on this site, cookies collect data to enhance your experience and personalize the content and advertising you see.
Visit our Privacy Policy to learn more. By continuing to use the site, you agree to this use of cookies and data.
  • en Suisse
  • Liste des pays
  • À 7 jours
  • Température de l'eau
  • Carte météo
  • Widgets météo
  • user-avatar
    Se connecter

    Météo par heure à Ajaccio

    Ce jour, 23 Janvier, Jeudi

    Heure Température Précipitation Vent Pression Humidité
    00:00 +11°C° 0 mm 3 m/s 756 mmHg 76%
    01:00 +10°C° 0 mm 3 m/s 756 mmHg 77%
    02:00 +10°C° 0 mm 3 m/s 756 mmHg 79%
    03:00 +10°C° 0 mm 4 m/s 755 mmHg 81%
    04:00 +10°C° 0 mm 4 m/s 755 mmHg 83%
    05:00 +10°C° 0 mm 4 m/s 755 mmHg 81%
    06:00 +10°C° 0 mm 4 m/s 755 mmHg 80%
    07:00 +10°C° 0 mm 4 m/s 755 mmHg 79%
    08:00 +11°C° 0 mm 4 m/s 755 mmHg 77%
    09:00 +12°C° 0 mm 3 m/s 756 mmHg 75%
    10:00 +13°C° 0 mm 3 m/s 756 mmHg 72%
    11:00 +13°C° 0 mm 3 m/s 756 mmHg 71%
    12:00 +14°C° 0 mm 3 m/s 756 mmHg 70%
    13:00 +14°C° 0 mm 3 m/s 755 mmHg 69%
    14:00 +14°C° 0 mm 3 m/s 755 mmHg 72%
    15:00 +15°C° 0 mm 2 m/s 755 mmHg 74%
    16:00 +14°C° 0 mm 2 m/s 754 mmHg 76%
    17:00 +13°C° 0 mm 2 m/s 754 mmHg 79%
    18:00 +12°C° 0 mm 2 m/s 754 mmHg 81%
    19:00 +10°C° 0 mm 2 m/s 754 mmHg 83%
    20:00 +10°C° 0 mm 2 m/s 754 mmHg 83%
    21:00 +10°C° 0 mm 3 m/s 754 mmHg 83%
    22:00 +10°C° 0 mm 3 m/s 754 mmHg 84%
    23:00 +10°C° 0 mm 3 m/s 754 mmHg 83%

    Demain, 24 Janvier, Vendredi

    Heure Température Précipitation Vent Pression Humidité
    00:00 +10°C° 0 mm 3 m/s 754 mmHg 82%
    01:00 +10°C° 0 mm 3 m/s 754 mmHg 82%
    02:00 +10°C° 0 mm 3 m/s 754 mmHg 82%
    03:00 +9°C° 0 mm 3 m/s 753 mmHg 83%
    04:00 +9°C° 0 mm 3 m/s 753 mmHg 84%
    05:00 +9°C° 0 mm 3 m/s 753 mmHg 84%
    06:00 +10°C° 0 mm 3 m/s 753 mmHg 85%
    07:00 +10°C° 0 mm 3 m/s 753 mmHg 86%
    08:00 +11°C° 0 mm 3 m/s 753 mmHg 84%
    09:00 +13°C° 0 mm 2 m/s 753 mmHg 81%
    10:00 +14°C° 0 mm 2 m/s 753 mmHg 79%
    11:00 +14°C° 0.2 mm 2 m/s 752 mmHg 80%
    12:00 +14°C° 0.2 mm 2 m/s 752 mmHg 80%
    13:00 +14°C° 0.2 mm 2 m/s 752 mmHg 81%
    14:00 +14°C° 0.5 mm 2 m/s 751 mmHg 82%
    15:00 +14°C° 0.5 mm 2 m/s 751 mmHg 84%
    16:00 +14°C° 0.5 mm 1 m/s 751 mmHg 85%
    17:00 +13°C° 0.1 mm 2 m/s 751 mmHg 86%
    18:00 +12°C° 0.1 mm 2 m/s 751 mmHg 87%
    19:00 +12°C° 0.1 mm 2 m/s 751 mmHg 88%
    20:00 +12°C° 0.1 mm 2 m/s 751 mmHg 89%
    21:00 +12°C° 0.1 mm 2 m/s 751 mmHg 90%
    22:00 +11°C° 0.1 mm 3 m/s 752 mmHg 91%
    23:00 +12°C° 0.2 mm 2 m/s 752 mmHg 91%

    Après-demain, 25 Janvier, Samedi

    Heure Température Précipitation Vent Pression Humidité
    00:00 +12°C° 0.2 mm 2 m/s 752 mmHg 91%
    01:00 +12°C° 0.2 mm 2 m/s 752 mmHg 91%
    02:00 +12°C° 0 mm 2 m/s 752 mmHg 91%
    03:00 +10°C° 0 mm 2 m/s 752 mmHg 92%
    04:00 +10°C° 0 mm 2 m/s 752 mmHg 92%
    05:00 +10°C° 0 mm 2 m/s 752 mmHg 92%
    06:00 +10°C° 0 mm 2 m/s 752 mmHg 92%
    07:00 +10°C° 0 mm 2 m/s 752 mmHg 92%
    08:00 +12°C° 0 mm 1 m/s 752 mmHg 90%
    09:00 +12°C° 0 mm 1 m/s 753 mmHg 87%
    10:00 +13°C° 0 mm 1 m/s 753 mmHg 85%
    11:00 +14°C° 0 mm 1 m/s 753 mmHg 82%
    12:00 +14°C° 0 mm 1 m/s 753 mmHg 80%
    13:00 +15°C° 0 mm 2 m/s 752 mmHg 77%
    14:00 +14°C° 0 mm 2 m/s 752 mmHg 79%
    15:00 +14°C° 0 mm 1 m/s 752 mmHg 81%
    16:00 +14°C° 0 mm 1 m/s 751 mmHg 83%
    17:00 +13°C° 0 mm 1 m/s 751 mmHg 86%
    18:00 +12°C° 0 mm 1 m/s 751 mmHg 90%
    19:00 +11°C° 0 mm 1 m/s 752 mmHg 93%
    20:00 +10°C° 0 mm 2 m/s 752 mmHg 90%
    21:00 +10°C° 0 mm 2 m/s 752 mmHg 86%
    22:00 +10°C° 0 mm 2 m/s 752 mmHg 83%
    23:00 +10°C° 0 mm 2 m/s 752 mmHg 78%

    26 Janvier, Dimanche

    Heure Température Précipitation Vent Pression Humidité
    00:00 +9°C° 0 mm 2 m/s 751 mmHg 73%
    01:00 +9°C° 0 mm 2 m/s 751 mmHg 68%
    02:00 +9°C° 0 mm 2 m/s 751 mmHg 66%
    03:00 +9°C° 0 mm 2 m/s 751 mmHg 64%
    04:00 +9°C° 0 mm 2 m/s 751 mmHg 63%
    05:00 +9°C° 0 mm 2 m/s 750 mmHg 63%
    06:00 +9°C° 0 mm 2 m/s 750 mmHg 63%
    07:00 +9°C° 0 mm 2 m/s 750 mmHg 63%
    08:00 +10°C° 0 mm 2 m/s 750 mmHg 63%
    09:00 +12°C° 0 mm 1 m/s 750 mmHg 63%
    10:00 +13°C° 0 mm 1 m/s 751 mmHg 62%
    11:00 +14°C° 0 mm 1 m/s 750 mmHg 60%
    12:00 +14°C° 0 mm 1 m/s 750 mmHg 58%
    13:00 +15°C° 0 mm 1 m/s 750 mmHg 55%
    14:00 +14°C° 0 mm 2 m/s 750 mmHg 58%
    15:00 +14°C° 0 mm 2 m/s 750 mmHg 61%
    16:00 +14°C° 0 mm 2 m/s 749 mmHg 64%
    17:00 +13°C° 0 mm 2 m/s 750 mmHg 69%
    18:00 +12°C° 0 mm 2 m/s 750 mmHg 73%
    19:00 +10°C° 0 mm 2 m/s 750 mmHg 77%
    20:00 +11°C° 0 mm 1 m/s 750 mmHg 77%
    21:00 +11°C° 0 mm 1 m/s 751 mmHg 78%
    22:00 +10°C° 0 mm 1 m/s 751 mmHg 78%
    23:00 +10°C° 0 mm 1 m/s 751 mmHg 77%

    27 Janvier, Lundi

    Heure Température Précipitation Vent Pression Humidité
    00:00 +10°C° 0 mm 1 m/s 751 mmHg 77%
    01:00 +10°C° 0 mm 1 m/s 751 mmHg 77%
    02:00 +9°C° 0 mm 2 m/s 751 mmHg 76%
    03:00 +8°C° 0 mm 2 m/s 751 mmHg 76%
    04:00 +8°C° 0 mm 2 m/s 751 mmHg 75%
    05:00 +8°C° 0 mm 2 m/s 751 mmHg 75%
    06:00 +8°C° 0 mm 2 m/s 752 mmHg 74%
    07:00 +8°C° 0 mm 3 m/s 752 mmHg 74%
    08:00 +9°C° 0 mm 3 m/s 752 mmHg 71%
    09:00 +10°C° 0 mm 3 m/s 753 mmHg 68%
    10:00 +13°C° 0 mm 2 m/s 753 mmHg 65%
    11:00 +12°C° 0 mm 3 m/s 753 mmHg 64%
    12:00 +13°C° 0 mm 3 m/s 753 mmHg 63%
    13:00 +14°C° 0 mm 3 m/s 753 mmHg 62%
    14:00 +13°C° 0 mm 3 m/s 753 mmHg 67%
    15:00 +13°C° 0 mm 3 m/s 753 mmHg 72%
    16:00 +13°C° 0 mm 2 m/s 753 mmHg 77%
    17:00 +12°C° 0 mm 2 m/s 753 mmHg 82%
    18:00 +10°C° 0 mm 2 m/s 753 mmHg 86%
    19:00 +10°C° 0 mm 1 m/s 753 mmHg 91%
    20:00 +10°C° 0 mm 1 m/s 753 mmHg 90%
    21:00 +10°C° 0 mm 1 m/s 754 mmHg 89%
    22:00 +9°C° 0 mm 1 m/s 754 mmHg 88%
    23:00 +9°C° 0 mm 1 m/s 754 mmHg 88%

    28 Janvier, Mardi

    Heure Température Précipitation Vent Pression Humidité
    00:00 +9°C° 0 mm 1 m/s 754 mmHg 88%
    01:00 +8°C° 0 mm 2 m/s 754 mmHg 88%
    02:00 +8°C° 0 mm 2 m/s 754 mmHg 86%
    03:00 +8°C° 0 mm 2 m/s 753 mmHg 84%
    04:00 +8°C° 0 mm 2 m/s 753 mmHg 81%
    05:00 +8°C° 0 mm 2 m/s 753 mmHg 78%
    06:00 +7°C° 0 mm 2 m/s 753 mmHg 75%
    07:00 +7°C° 0 mm 2 m/s 753 mmHg 72%
    08:00 +10°C° 0 mm 1 m/s 753 mmHg 69%
    09:00 +11°C° 0 mm 1 m/s 754 mmHg 65%
    10:00 +12°C° 0 mm 1 m/s 754 mmHg 62%
    11:00 +13°C° 0 mm 1 m/s 754 mmHg 61%
    12:00 +14°C° 0 mm 1 m/s 753 mmHg 61%
    13:00 +15°C° 0 mm 1 m/s 753 mmHg 60%
    14:00 +14°C° 0 mm 2 m/s 753 mmHg 65%
    15:00 +14°C° 0 mm 2 m/s 753 mmHg 70%
    16:00 +13°C° 0 mm 2 m/s 752 mmHg 74%
    17:00 +12°C° 0 mm 2 m/s 752 mmHg 80%
    18:00 +10°C° 0 mm 2 m/s 752 mmHg 85%
    19:00 +9°C° 0 mm 2 m/s 753 mmHg 90%
    20:00 +9°C° 0 mm 2 m/s 753 mmHg 90%
    21:00 +9°C° 0 mm 2 m/s 753 mmHg 90%
    22:00 +9°C° 0 mm 2 m/s 753 mmHg 90%
    23:00 +9°C° 0 mm 2 m/s 753 mmHg 89%
    Voir plus